Regional Weather Roundup
Issued by NWS Goodland, KS

Home | Current Version | Previous Version | Graphics & Text | Print | Product List | Glossary On
Versions: 1 2 3 4 5 6 7 8 9 10 11 12 13 14 15 16 17 18 19 20 21 22 23 24 25 26 27 28 29 30 31 32 33 34 35 36 37 38 39 40 41 42 43 44 45 46 47 48 49 50
000
ASUS43 KGLD 272008
RWRGLD

GOODLAND FORECAST AREA HOURLY WEATHER ROUNDUP
NATIONAL WEATHER SERVICE GOODLAND KS
200 PM MDT TUE JUN 27 2017

...OFFICIAL OBSERVATIONS...

CITY           SKY/WX    TMP DP  RH WIND       PRES   REMARKS
GOODLAND KS    SUNNY     93  49  22 S21G28    29.79F
HILL CITY KS   SUNNY     94  56  27 S16G30    29.81F
IMPERIAL NEB   SUNNY     89  57  33 S18G25    29.79F
MCCOOK NEB     SUNNY     89  66  46 SE18G26   29.78F
AKRON CO       SUNNY     97  37  12 SW16G22   29.81F
BURLINGTON CO  NOT AVBL
LIMON CO       CLOUDY    89  48  24 E14       29.89F
$$

...UNOFFICIAL OBSERVATIONS...

CITY           SKY/WX    TMP DP  RH WIND       PRES   REMARKS
LENORA KS        N/A     92  32  12 MISG        N/A
NORTON KS      SUNNY     91  61  35 SE18G25   29.79F
SHARON SPRINGS   N/A     98  50  19 S26G37      N/A
TRIBUNE KS     SUNNY     97  50  20 S25G37    29.83
TRENTON NEB      N/A     89  32  13 S12         N/A
KIT CARSON CO    N/A     95  49  20 MISG        N/A
YUMA CO        FAIR      90  54  29 S16G22    29.77F
$$




USA.gov is the U.S. government's official web portal to all federal, state and local government web resources and services.